,,PA_Meas_PMT16A,,PR_Meas_QMR101_102,,RH_Meas_QMH101,,SR_Meas_QMS101,,TA_Meas_QMH101,,GenWind,,GenWind,
time,status,PA,status,PR,status,RH,status,SR,status,TA,status,DirAvg,status,SpdAvg,
2011-01-02, 00:00:04,VALID,915.57,VALID,0,VALID,97.0003,VALID,0,VALID,19.2348,VALID,15,VALID,0.696094,
2011-01-02, 00:01:04,VALID,915.56,VALID,0,VALID,97.0308,VALID,0,VALID,19.2543,VALID,15,VALID,0.672656,
2011-01-02, 00:02:04,VALID,915.567,VALID,0,VALID,97.0461,VALID,0,VALID,19.2543,VALID,15,VALID,0.530859,
2011-01-02, 00:03:04,VALID,915.592,VALID,0,VALID,97.0308,VALID,0,VALID,19.2543,VALID,15,VALID,0.0617188,
2011-01-02, 00:04:04,VALID,915.556,VALID,0,VALID,96.9394,VALID,0,VALID,19.1763,VALID,15,VALID,0.361328,
2011-01-02, 00:05:04,VALID,915.503,VALID,0,VALID,96.9012,VALID,0,VALID,19.1178,VALID,15,VALID,0.576953,
2011-01-02, 00:06:04,VALID,915.528,VALID,0,VALID,97.0156,VALID,0,VALID,19.1373,VALID,15,VALID,0.885938,
2011-01-02, 00:07:04,VALID,915.488,VALID,0,VALID,97.0308,VALID,0,VALID,19.1568,VALID,15,VALID,0.383984,
2011-01-02, 00:08:04,VALID,915.485,VALID,0,VALID,97.0537,VALID,0,VALID,19.1763,VALID,15,VALID,0.442969,
2011-01-02, 00:09:04,VALID,915.49,VALID,0,VALID,97.069,VALID,0,VALID,19.1749,VALID,15,VALID,0.789844,
2011-01-02, 00:10:04,VALID,915.476,VALID,0,VALID,97.0537,VALID,0,VALID,19.1568,VALID,15,VALID,0.878906,
2011-01-02, 00:11:04,VALID,915.441,VALID,0,VALID,97.0918,VALID,0,VALID,19.1958,VALID,15,VALID,0.784375,
2011-01-02, 00:12:04,VALID,915.432,VALID,0,VALID,97.1223,VALID,0,VALID,19.2543,VALID,15,VALID,0.858984,
2011-01-02, 00:13:04,VALID,915.441,VALID,0,VALID,97.0461,VALID,0,VALID,19.1958,VALID,16,VALID,0.830859,
2011-01-02, 00:14:04,VALID,915.436,VALID,0,VALID,97.069,VALID,0,VALID,19.2168,VALID,16,VALID,0.891797,
2011-01-02, 00:15:04,VALID,915.407,VALID,0,VALID,97.0994,VALID,0,VALID,19.1958,VALID,16,VALID,1.09375,
2011-01-02, 00:16:04,VALID,915.404,VALID,0,VALID,97.1071,VALID,0,VALID,19.2153,VALID,16,VALID,1.1668,
2011-01-02, 00:17:04,VALID,915.447,VALID,0,VALID,97.1681,VALID,0,VALID,19.2348,VALID,116,VALID,1.375,
2011-01-02, 00:18:04,VALID,915.434,VALID,0,VALID,97.1757,VALID,0,VALID,19.2543,VALID,116,VALID,1.09414,
2011-01-02, 00:19:04,VALID,915.387,VALID,0,VALID,97.1528,VALID,0,VALID,19.2543,VALID,116,VALID,1.2375,
2011-01-02, 00:20:04,VALID,915.372,VALID,0,VALID,97.1681,VALID,0,VALID,19.2543,VALID,116,VALID,1.06914,
2011-01-02, 00:21:04,VALID,915.334,VALID,0,VALID,97.2062,VALID,0,VALID,19.2738,VALID,128,VALID,1.17773,
2011-01-02, 00:22:04,VALID,915.32,VALID,0,VALID,97.2062,VALID,0,VALID,19.3128,VALID,128,VALID,1.01758,
2011-01-02, 00:23:04,VALID,915.341,VALID,0,VALID,97.229,VALID,0,VALID,19.3518,VALID,128,VALID,1.28828,
2011-01-02, 00:24:04,VALID,915.348,VALID,0,VALID,97.2367,VALID,0,VALID,19.3713,VALID,128,VALID,1.07422,
2011-01-02, 00:25:04,VALID,915.362,VALID,0,VALID,97.2519,VALID,0,VALID,19.3713,VALID,128,VALID,0.950391,
2011-01-02, 00:26:04,VALID,915.344,VALID,0,VALID,97.2214,VALID,0,VALID,19.3713,VALID,128,VALID,1.07578,
2011-01-02, 00:27:04,VALID,915.338,VALID,0,VALID,97.229,VALID,0,VALID,19.3908,VALID,128,VALID,0.786328,
2011-01-02, 00:28:04,VALID,915.325,VALID,0,VALID,97.2214,VALID,0,VALID,19.3908,VALID,128,VALID,1.06953,
2011-01-02, 00:29:04,VALID,915.337,VALID,0,VALID,97.229,VALID,0,VALID,19.3713,VALID,128,VALID,0.456641,
2011-01-02, 00:30:04,VALID,915.351,VALID,0,VALID,97.2062,VALID,0,VALID,19.3713,VALID,128,VALID,0.395703,
2011-01-02, 00:31:04,VALID,915.341,VALID,0,VALID,97.2595,VALID,0,VALID,19.4298,VALID,128,VALID,0.768359,
2011-01-02, 00:32:04,VALID,915.39,VALID,0,VALID,97.2367,VALID,0,VALID,19.4103,VALID,128,VALID,0.398438,
2011-01-02, 00:33:04,VALID,915.381,VALID,0,VALID,97.229,VALID,0,VALID,19.4103,VALID,128,VALID,0.650781,
2011-01-02, 00:34:04,VALID,915.394,VALID,0,VALID,97.2062,VALID,0,VALID,19.4103,VALID,128,VALID,0.25,
2011-01-02, 00:35:04,VALID,915.427,VALID,0,VALID,97.2367,VALID,0,VALID,19.3908,VALID,128,VALID,1.09531,
2011-01-02, 00:36:04,VALID,915.405,VALID,0,VALID,97.2519,VALID,0,VALID,19.4103,VALID,128,VALID,0.570703,
2011-01-02, 00:37:04,VALID,915.421,VALID,0,VALID,97.2138,VALID,0,VALID,19.3908,VALID,128,VALID,0.573438,
2011-01-02, 00:38:04,VALID,915.441,VALID,0,VALID,97.2214,VALID,0,VALID,19.3713,VALID,128,VALID,0.508984,
2011-01-02, 00:39:04,VALID,915.441,VALID,0,VALID,97.229,VALID,0,VALID,19.3518,VALID,128,VALID,1.00742,
2011-01-02, 00:40:04,VALID,915.48,VALID,0,VALID,97.1452,VALID,0,VALID,19.2933,VALID,128,VALID,0.832031,
2011-01-02, 00:41:04,VALID,915.502,VALID,0,VALID,97.0994,VALID,0,VALID,19.2348,VALID,128,VALID,0.879687,
2011-01-02, 00:42:04,VALID,915.545,VALID,0,VALID,97.1528,VALID,0,VALID,19.1958,VALID,128,VALID,0.642187,
2011-01-02, 00:43:04,VALID,915.55,VALID,0,VALID,97.1681,VALID,0,VALID,19.1568,VALID,128,VALID,0.602734,
2011-01-02, 00:44:04,VALID,915.552,VALID,0,VALID,97.1909,VALID,0,VALID,19.1373,VALID,128,VALID,0.495703,
2011-01-02, 00:45:04,VALID,915.522,VALID,0,VALID,97.1757,VALID,0,VALID,19.0983,VALID,128,VALID,0.475,
2011-01-02, 00:46:04,VALID,915.475,VALID,0,VALID,97.2062,VALID,0,VALID,19.0593,VALID,128,VALID,0.563672,
2011-01-02, 00:47:04,VALID,915.465,VALID,0,VALID,97.29,VALID,0,VALID,19.0788,VALID,128,VALID,0.770312,
2011-01-02, 00:48:04,VALID,915.427,VALID,0,VALID,97.3281,VALID,0,VALID,19.0983,VALID,128,VALID,0.470703,
2011-01-02, 00:49:04,VALID,915.395,VALID,0,VALID,97.3205,VALID,0,VALID,19.0983,VALID,128,VALID,0.24375,
2011-01-02, 00:50:04,VALID,915.369,VALID,0,VALID,97.3205,VALID,0,VALID,19.0983,VALID,128,VALID,0,
2011-01-02, 00:51:04,VALID,915.345,VALID,0,VALID,97.3205,VALID,0,VALID,19.0983,VALID,128,VALID,0,
2011-01-02, 00:52:04,VALID,915.342,VALID,0,VALID,97.3129,VALID,0,VALID,19.1178,VALID,128,VALID,0,
2011-01-02, 00:53:04,VALID,915.32,VALID,0,VALID,97.3434,VALID,0.107441,VALID,19.0983,VALID,128,VALID,0,
2011-01-02, 00:54:04,VALID,915.334,VALID,0,VALID,97.3281,VALID,0,VALID,19.0983,VALID,128,VALID,0,
2011-01-02, 00:55:04,VALID,915.332,VALID,0,VALID,97.3205,VALID,0,VALID,19.0788,VALID,128,VALID,0,
2011-01-02, 00:56:04,VALID,915.348,VALID,0,VALID,97.3205,VALID,0,VALID,19.0593,VALID,128,VALID,0.164063,
2011-01-02, 00:57:04,VALID,915.35,VALID,0,VALID,97.2672,VALID,0,VALID,19.0398,VALID,128,VALID,0.503516,
2011-01-02, 00:58:04,VALID,915.335,VALID,0,VALID,97.3053,VALID,0,VALID,19.0008,VALID,128,VALID,0.565625,
2011-01-02, 00:59:04,VALID,915.303,VALID,0,VALID,97.3129,VALID,0,VALID,18.9814,VALID,128,VALID,0.594141,
2011-01-02, 01:00:04,VALID,915.284,VALID,0,VALID,97.3205,VALID,0,VALID,18.9814,VALID,128,VALID,0.455078,
2011-01-02, 01:01:04,VALID,915.245,VALID,0,VALID,97.3663,VALID,0,VALID,19.0008,VALID,128,VALID,0.615234,
2011-01-02, 01:02:04,VALID,915.216,VALID,0,VALID,97.3434,VALID,0,VALID,18.9814,VALID,128,VALID,0.870313,
2011-01-02, 01:03:04,VALID,915.227,VALID,0,VALID,97.3663,VALID,0,VALID,19.0008,VALID,128,VALID,0.848047,
2011-01-02, 01:04:04,VALID,915.211,VALID,0,VALID,97.3815,VALID,0,VALID,19.0203,VALID,128,VALID,0.685938,
2011-01-02, 01:05:04,VALID,915.197,VALID,0,VALID,97.3968,VALID,0,VALID,19.0008,VALID,128,VALID,0.686719,
2011-01-02, 01:06:04,VALID,915.205,VALID,0,VALID,97.3739,VALID,0,VALID,19.0008,VALID,128,VALID,0.778906,
2011-01-02, 01:07:04,VALID,915.199,VALID,0,VALID,97.3815,VALID,0,VALID,18.9814,VALID,128,VALID,0.696094,
2011-01-02, 01:08:04,VALID,915.186,VALID,0,VALID,97.3815,VALID,0,VALID,18.9814,VALID,128,VALID,1.00273,
2011-01-02, 01:09:04,VALID,915.216,VALID,0,VALID,97.3891,VALID,0,VALID,19.0203,VALID,128,VALID,1.07773,
2011-01-02, 01:10:04,VALID,915.201,VALID,0,VALID,97.3891,VALID,0,VALID,19.0203,VALID,137,VALID,0.864844,
2011-01-02, 01:11:04,VALID,915.216,VALID,0,VALID,97.4044,VALID,0,VALID,19.0398,VALID,169,VALID,1.00391,
2011-01-02, 01:12:04,VALID,915.231,VALID,0,VALID,97.3968,VALID,0,VALID,19.0593,VALID,169,VALID,0.980078,
2011-01-02, 01:13:04,VALID,915.226,VALID,0,VALID,97.3891,VALID,0,VALID,19.0398,VALID,169,VALID,0.876562,
2011-01-02, 01:14:04,VALID,915.238,VALID,0,VALID,97.4044,VALID,0,VALID,19.0398,VALID,169,VALID,0.710938,
2011-01-02, 01:15:04,VALID,915.236,VALID,0,VALID,97.4044,VALID,0,VALID,19.0593,VALID,169,VALID,0.4625,
2011-01-02, 01:16:04,VALID,915.258,VALID,0,VALID,97.3891,VALID,0,VALID,19.0398,VALID,169,VALID,0.755078,
2011-01-02, 01:17:04,VALID,915.239,VALID,0,VALID,97.3968,VALID,0,VALID,19.0593,VALID,133,VALID,1.02773,
2011-01-02, 01:18:04,VALID,915.239,VALID,0,VALID,97.3891,VALID,0,VALID,19.0593,VALID,114,VALID,0.366406,
2011-01-02, 01:19:04,VALID,915.242,VALID,0,VALID,97.412,VALID,0,VALID,19.0579,VALID,114,VALID,0.913672,
2011-01-02, 01:20:04,VALID,915.24,VALID,0,VALID,97.412,VALID,0,VALID,19.0969,VALID,114,VALID,0.622266,
2011-01-02, 01:21:04,VALID,915.188,VALID,0,VALID,97.412,VALID,0,VALID,19.1373,VALID,114,VALID,0.528516,
2011-01-02, 01:22:04,VALID,915.184,VALID,0,VALID,97.412,VALID,0,VALID,19.1178,VALID,114,VALID,0.934766,
2011-01-02, 01:23:04,VALID,915.145,VALID,0,VALID,97.3968,VALID,0,VALID,19.0983,VALID,114,VALID,0.984375,
2011-01-02, 01:24:04,VALID,915.125,VALID,0,VALID,97.4196,VALID,0,VALID,19.0983,VALID,114,VALID,0.480469,
2011-01-02, 01:25:04,VALID,915.109,VALID,0,VALID,97.4044,VALID,0,VALID,19.0983,VALID,114,VALID,0.550781,
2011-01-02, 01:26:04,VALID,915.074,VALID,0,VALID,97.4349,VALID,0,VALID,19.1178,VALID,114,VALID,0.624609,
2011-01-02, 01:27:04,VALID,915.056,VALID,0,VALID,97.4196,VALID,0,VALID,19.1178,VALID,115,VALID,0.373828,
2011-01-02, 01:28:04,VALID,915.036,VALID,0,VALID,97.4196,VALID,0,VALID,19.1568,VALID,115,VALID,0.265625,
2011-01-02, 01:29:04,VALID,914.957,VALID,0,VALID,97.4349,VALID,0,VALID,19.1568,VALID,115,VALID,0.717969,
2011-01-02, 01:30:04,VALID,914.98,VALID,0,VALID,97.4196,VALID,0,VALID,19.1763,VALID,115,VALID,0.402344,
2011-01-02, 01:31:04,VALID,914.93,VALID,0,VALID,97.4044,VALID,0,VALID,19.1763,VALID,115,VALID,0.244922,
2011-01-02, 01:32:04,VALID,914.942,VALID,0,VALID,97.412,VALID,0,VALID,19.1778,VALID,115,VALID,0.523047,
2011-01-02, 01:33:04,VALID,914.979,VALID,0,VALID,97.4349,VALID,0,VALID,19.1568,VALID,115,VALID,0.734766,
2011-01-02, 01:34:04,VALID,914.977,VALID,0,VALID,97.4273,VALID,0,VALID,19.1164,VALID,115,VALID,0.592578,
2011-01-02, 01:35:04,VALID,914.975,VALID,0,VALID,97.412,VALID,0,VALID,19.1164,VALID,115,VALID,0.684766,
2011-01-02, 01:36:04,VALID,914.953,VALID,0,VALID,97.4196,VALID,0,VALID,19.1373,VALID,115,VALID,0.491406,
2011-01-02, 01:37:04,VALID,914.953,VALID,0,VALID,97.4273,VALID,0,VALID,19.0774,VALID,115,VALID,0.769141,
2011-01-02, 01:38:04,VALID,914.95,VALID,0,VALID,97.3891,VALID,0,VALID,19.0398,VALID,115,VALID,0.737109,
2011-01-02, 01:39:04,VALID,914.937,VALID,0,VALID,97.412,VALID,0,VALID,19.0008,VALID,115,VALID,1.0543,
2011-01-02, 01:40:04,VALID,914.943,VALID,0,VALID,97.4044,VALID,0,VALID,18.9619,VALID,115,VALID,0.823438,
2011-01-02, 01:41:04,VALID,914.932,VALID,0,VALID,97.412,VALID,0,VALID,18.9229,VALID,115,VALID,0.914453,
2011-01-02, 01:42:04,VALID,914.906,VALID,0,VALID,97.412,VALID,0,VALID,18.8839,VALID,115,VALID,0.836328,
2011-01-02, 01:43:04,VALID,914.85,VALID,0,VALID,97.4196,VALID,0,VALID,18.8449,VALID,115,VALID,0.941016,
2011-01-02, 01:44:04,VALID,914.847,VALID,0,VALID,97.4196,VALID,0,VALID,18.8254,VALID,115,VALID,0.645703,
2011-01-02, 01:45:04,VALID,914.814,VALID,0,VALID,97.4273,VALID,0,VALID,18.8059,VALID,115,VALID,0.444531,
2011-01-02, 01:46:04,VALID,914.811,VALID,0,VALID,97.4425,VALID,0,VALID,18.7864,VALID,115,VALID,0.732422,
2011-01-02, 01:47:04,VALID,914.771,VALID,0,VALID,97.4501,VALID,0,VALID,18.7669,VALID,115,VALID,0.476563,
2011-01-02, 01:48:04,VALID,914.753,VALID,0,VALID,97.4349,VALID,0,VALID,18.7474,VALID,115,VALID,0.551953,
2011-01-02, 01:49:04,VALID,914.714,VALID,0,VALID,97.4425,VALID,0,VALID,18.7683,VALID,115,VALID,0.528125,
2011-01-02, 01:50:04,VALID,914.681,VALID,0,VALID,97.4654,VALID,0,VALID,18.707,VALID,115,VALID,0.421875,
2011-01-02, 01:51:04,VALID,914.67,VALID,0,VALID,97.4501,VALID,0,VALID,18.7084,VALID,115,VALID,0.415625,
2011-01-02, 01:52:04,VALID,914.642,VALID,0,VALID,97.4501,VALID,0,VALID,18.6889,VALID,115,VALID,0.721094,
2011-01-02, 01:53:04,VALID,914.601,VALID,0,VALID,97.4577,VALID,0,VALID,18.6694,VALID,115,VALID,0.710547,
2011-01-02, 01:54:04,VALID,914.559,VALID,0,VALID,97.4654,VALID,0,VALID,18.6694,VALID,115,VALID,0.721484,
2011-01-02, 01:55:04,VALID,914.519,VALID,0,VALID,97.473,VALID,0,VALID,18.6513,VALID,115,VALID,0.80625,
2011-01-02, 01:56:04,VALID,914.509,VALID,0,VALID,97.473,VALID,0,VALID,18.6304,VALID,115,VALID,0.946875,
2011-01-02, 01:57:04,VALID,914.485,VALID,0,VALID,97.473,VALID,0,VALID,18.6109,VALID,115,VALID,0.650781,
2011-01-02, 01:58:04,VALID,914.451,VALID,0,VALID,97.4806,VALID,0,VALID,18.5914,VALID,115,VALID,0.848047,
2011-01-02, 01:59:04,VALID,914.439,VALID,0,VALID,97.4882,VALID,0,VALID,18.5914,VALID,115,VALID,0.964063,
2011-01-02, 02:00:04,VALID,914.362,VALID,0,VALID,97.5111,VALID,0,VALID,18.572,VALID,115,VALID,0.752344,
2011-01-02, 02:01:04,VALID,914.342,VALID,0,VALID,97.4882,VALID,0,VALID,18.572,VALID,115,VALID,0.780078,
2011-01-02, 02:02:04,VALID,914.335,VALID,0,VALID,97.5035,VALID,0,VALID,18.5914,VALID,115,VALID,0.915625,
2011-01-02, 02:03:04,VALID,914.321,VALID,0,VALID,97.5111,VALID,0,VALID,18.5734,VALID,115,VALID,0.491016,
2011-01-02, 02:04:04,VALID,914.312,VALID,0,VALID,97.5187,VALID,0,VALID,18.572,VALID,115,VALID,0.827344,
2011-01-02, 02:05:04,VALID,914.297,VALID,0,VALID,97.5187,VALID,0,VALID,18.5511,VALID,127,VALID,1.22852,
2011-01-02, 02:06:04,VALID,914.271,VALID,0,VALID,97.5264,VALID,0,VALID,18.572,VALID,132,VALID,0.957031,
2011-01-02, 02:07:04,VALID,914.265,VALID,0,VALID,97.534,VALID,0,VALID,18.6109,VALID,132,VALID,1.33555,
2011-01-02, 02:08:04,VALID,914.249,VALID,0,VALID,97.5264,VALID,0,VALID,18.5914,VALID,132,VALID,1.09023,
2011-01-02, 02:09:04,VALID,914.269,VALID,0,VALID,97.5264,VALID,0,VALID,18.6109,VALID,132,VALID,0.867969,
2011-01-02, 02:10:04,VALID,914.238,VALID,0,VALID,97.5264,VALID,0,VALID,18.572,VALID,132,VALID,0.762109,
2011-01-02, 02:11:04,VALID,914.264,VALID,0,VALID,97.5492,VALID,0,VALID,18.5914,VALID,132,VALID,1.375,
2011-01-02, 02:12:04,VALID,914.221,VALID,0,VALID,97.534,VALID,0,VALID,18.5914,VALID,132,VALID,0.938672,
2011-01-02, 02:13:04,VALID,914.227,VALID,0,VALID,97.534,VALID,0,VALID,18.572,VALID,132,VALID,0.941406,
2011-01-02, 02:14:04,VALID,914.232,VALID,0,VALID,97.5416,VALID,0,VALID,18.5525,VALID,100,VALID,0.916797,
2011-01-02, 02:15:04,VALID,914.203,VALID,0,VALID,97.5416,VALID,0,VALID,18.5525,VALID,114,VALID,1.15703,
2011-01-02, 02:16:04,VALID,914.162,VALID,0,VALID,97.534,VALID,0,VALID,18.5525,VALID,115,VALID,1.07891,
2011-01-02, 02:17:04,VALID,914.209,VALID,0,VALID,97.5492,VALID,0,VALID,18.572,VALID,132,VALID,1.24375,
2011-01-02, 02:18:04,VALID,914.181,VALID,0,VALID,97.5569,VALID,0,VALID,18.5525,VALID,133,VALID,1.0293,
2011-01-02, 02:19:04,VALID,914.168,VALID,0,VALID,97.5569,VALID,0,VALID,18.5734,VALID,133,VALID,0.969531,
2011-01-02, 02:20:04,VALID,914.167,VALID,0,VALID,97.5492,VALID,0,VALID,18.5525,VALID,135,VALID,1.10781,
2011-01-02, 02:21:04,VALID,914.153,VALID,0,VALID,97.5797,VALID,0,VALID,18.572,VALID,137,VALID,1.37852,
2011-01-02, 02:22:04,VALID,914.156,VALID,0,VALID,97.5492,VALID,0,VALID,18.5525,VALID,112,VALID,0.892969,
2011-01-02, 02:23:04,VALID,914.14,VALID,0,VALID,97.5721,VALID,0,VALID,18.5525,VALID,112,VALID,1.77383,
2011-01-02, 02:24:04,VALID,914.145,VALID,0,VALID,97.5569,VALID,0,VALID,18.5734,VALID,108,VALID,1.47461,
2011-01-02, 02:25:04,VALID,914.153,VALID,0,VALID,97.5569,VALID,0,VALID,18.533,VALID,106,VALID,1.10469,
2011-01-02, 02:26:04,VALID,914.133,VALID,0,VALID,97.5569,VALID,0,VALID,18.533,VALID,106,VALID,1.03555,
2011-01-02, 02:27:04,VALID,914.167,VALID,0,VALID,97.5721,VALID,0,VALID,18.5135,VALID,106,VALID,0.800781,
2011-01-02, 02:28:04,VALID,914.169,VALID,0,VALID,97.5569,VALID,0,VALID,18.4745,VALID,106,VALID,0.854688,
2011-01-02, 02:29:04,VALID,914.179,VALID,0,VALID,97.5797,VALID,0,VALID,18.494,VALID,106,VALID,0.704297,
2011-01-02, 02:30:04,VALID,914.197,VALID,0,VALID,97.5645,VALID,0,VALID,18.494,VALID,106,VALID,0.892578,
2011-01-02, 02:31:04,VALID,914.18,VALID,0,VALID,97.5873,VALID,0,VALID,18.5135,VALID,106,VALID,1.04141,
2011-01-02, 02:32:04,VALID,914.157,VALID,0,VALID,97.5873,VALID,0,VALID,18.5344,VALID,106,VALID,1.18477,
2011-01-02, 02:33:04,VALID,914.126,VALID,0,VALID,97.595,VALID,0,VALID,18.533,VALID,106,VALID,0.855469,
2011-01-02, 02:34:04,VALID,914.15,VALID,0,VALID,97.6026,VALID,0,VALID,18.5344,VALID,106,VALID,0.808984,
2011-01-02, 02:35:04,VALID,914.139,VALID,0,VALID,97.595,VALID,0,VALID,18.5135,VALID,106,VALID,0.599219,
2011-01-02, 02:36:04,VALID,914.132,VALID,0,VALID,97.5873,VALID,0,VALID,18.494,VALID,106,VALID,0.853516,
2011-01-02, 02:37:04,VALID,914.141,VALID,0,VALID,97.5797,VALID,0,VALID,18.494,VALID,106,VALID,0.692187,
2011-01-02, 02:38:04,VALID,914.105,VALID,0,VALID,97.5873,VALID,0,VALID,18.455,VALID,106,VALID,0.739844,
2011-01-02, 02:39:04,VALID,914.113,VALID,0,VALID,97.5721,VALID,0,VALID,18.455,VALID,106,VALID,0.965625,
2011-01-02, 02:40:04,VALID,914.117,VALID,0,VALID,97.595,VALID,0,VALID,18.455,VALID,106,VALID,1.03555,
2011-01-02, 02:41:04,VALID,914.12,VALID,0,VALID,97.595,VALID,0,VALID,18.5149,VALID,106,VALID,0.795313,
2011-01-02, 02:42:04,VALID,914.101,VALID,0,VALID,97.595,VALID,0,VALID,18.4954,VALID,106,VALID,0.610937,
2011-01-02, 02:43:04,VALID,914.088,VALID,0,VALID,97.6026,VALID,0,VALID,18.4745,VALID,106,VALID,0.751953,
2011-01-02, 02:44:04,VALID,914.055,VALID,0,VALID,97.6026,VALID,0,VALID,18.5149,VALID,106,VALID,0.992578,
2011-01-02, 02:45:04,VALID,914.019,VALID,0,VALID,97.6255,VALID,0,VALID,18.5135,VALID,106,VALID,0.722656,
2011-01-02, 02:46:04,VALID,914.037,VALID,0,VALID,97.6026,VALID,0,VALID,18.494,VALID,106,VALID,0.596875,
2011-01-02, 02:47:04,VALID,914.031,VALID,0,VALID,97.6026,VALID,0,VALID,18.4745,VALID,106,VALID,0.579297,
2011-01-02, 02:48:04,VALID,913.991,VALID,0,VALID,97.6026,VALID,0,VALID,18.5135,VALID,106,VALID,0.700781,
2011-01-02, 02:49:04,VALID,913.977,VALID,0,VALID,97.5873,VALID,0,VALID,18.5525,VALID,106,VALID,0.710547,
2011-01-02, 02:50:04,VALID,913.982,VALID,0,VALID,97.6331,VALID,0,VALID,18.5135,VALID,106,VALID,0.728516,
2011-01-02, 02:51:04,VALID,913.932,VALID,0,VALID,97.6026,VALID,0,VALID,18.5525,VALID,107,VALID,0.834375,
2011-01-02, 02:52:04,VALID,913.894,VALID,0,VALID,97.6026,VALID,0,VALID,18.5929,VALID,107,VALID,0.648438,
2011-01-02, 02:53:04,VALID,913.876,VALID,0,VALID,97.5873,VALID,0,VALID,18.572,VALID,107,VALID,0.679297,
2011-01-02, 02:54:04,VALID,913.894,VALID,0,VALID,97.595,VALID,0,VALID,18.572,VALID,107,VALID,0.514453,
2011-01-02, 02:55:04,VALID,913.907,VALID,0,VALID,97.6026,VALID,0,VALID,18.5525,VALID,107,VALID,0.910937,
2011-01-02, 02:56:04,VALID,913.918,VALID,0,VALID,97.6026,VALID,0,VALID,18.5525,VALID,107,VALID,0.442578,
2011-01-02, 02:57:04,VALID,913.925,VALID,0,VALID,97.6255,VALID,0,VALID,18.5525,VALID,107,VALID,0.389453,
2011-01-02, 02:58:04,VALID,913.918,VALID,0,VALID,97.595,VALID,0,VALID,18.5525,VALID,107,VALID,0.0191406,
2011-01-02, 02:59:04,VALID,913.883,VALID,0,VALID,97.595,VALID,0,VALID,18.533,VALID,107,VALID,0,
2011-01-02, 03:00:04,VALID,913.866,VALID,0,VALID,97.6102,VALID,0,VALID,18.533,VALID,107,VALID,0,
2011-01-02, 03:01:04,VALID,913.851,VALID,0,VALID,97.6178,VALID,0,VALID,18.533,VALID,107,VALID,0,
2011-01-02, 03:02:04,VALID,913.868,VALID,0,VALID,97.6102,VALID,0,VALID,18.533,VALID,107,VALID,0,
2011-01-02, 03:03:04,VALID,913.866,VALID,0,VALID,97.6026,VALID,0,VALID,18.5135,VALID,107,VALID,0,
2011-01-02, 03:04:04,VALID,913.862,VALID,0,VALID,97.6026,VALID,0,VALID,18.494,VALID,107,VALID,0,
2011-01-02, 03:05:04,VALID,913.821,VALID,0,VALID,97.6102,VALID,0,VALID,18.4745,VALID,107,VALID,0.280859,
2011-01-02, 03:06:04,VALID,913.813,VALID,0,VALID,97.6102,VALID,0,VALID,18.4564,VALID,107,VALID,0.785156,
2011-01-02, 03:07:04,VALID,913.796,VALID,0,VALID,97.5721,VALID,0,VALID,18.3965,VALID,107,VALID,0.546094,
2011-01-02, 03:08:04,VALID,913.793,VALID,0,VALID,97.6102,VALID,0,VALID,18.377,VALID,107,VALID,0.683203,
2011-01-02, 03:09:04,VALID,913.835,VALID,0,VALID,97.6026,VALID,0,VALID,18.3979,VALID,107,VALID,0.970703,
2011-01-02, 03:10:04,VALID,913.846,VALID,0,VALID,97.6255,VALID,0,VALID,18.3951,VALID,107,VALID,0.739453,
2011-01-02, 03:11:04,VALID,913.838,VALID,0,VALID,97.6178,VALID,0,VALID,18.4174,VALID,108,VALID,1.00547,
2011-01-02, 03:12:04,VALID,913.892,VALID,0,VALID,97.6178,VALID,0,VALID,18.4174,VALID,108,VALID,0.725391,
2011-01-02, 03:13:04,VALID,913.901,VALID,0,VALID,97.6255,VALID,0,VALID,18.4174,VALID,108,VALID,0.498047,
2011-01-02, 03:14:04,VALID,913.961,VALID,0,VALID,97.6102,VALID,0,VALID,18.3965,VALID,108,VALID,0.542969,
2011-01-02, 03:15:04,VALID,913.965,VALID,0,VALID,97.6331,VALID,0.107441,VALID,18.3965,VALID,108,VALID,0.421094,
2011-01-02, 03:16:04,VALID,913.927,VALID,0,VALID,97.6178,VALID,0,VALID,18.377,VALID,115,VALID,1.0875,
2011-01-02, 03:17:04,VALID,913.924,VALID,0,VALID,97.6407,VALID,0,VALID,18.3965,VALID,115,VALID,1.33047,
2011-01-02, 03:18:04,VALID,913.922,VALID,0,VALID,97.6255,VALID,0,VALID,18.377,VALID,115,VALID,1.10078,
2011-01-02, 03:19:04,VALID,913.917,VALID,0,VALID,97.6407,VALID,0,VALID,18.338,VALID,102,VALID,1.3418,
2011-01-02, 03:20:04,VALID,913.926,VALID,0,VALID,97.6102,VALID,0,VALID,18.299,VALID,113,VALID,1.52773,
2011-01-02, 03:21:04,VALID,913.961,VALID,0,VALID,97.6407,VALID,0,VALID,18.2587,VALID,118,VALID,1.21289,
2011-01-02, 03:22:04,VALID,913.963,VALID,0,VALID,97.6331,VALID,0,VALID,18.299,VALID,118,VALID,0.741797,
2011-01-02, 03:23:04,VALID,913.972,VALID,0,VALID,97.6483,VALID,0,VALID,18.3185,VALID,118,VALID,0.944141,
2011-01-02, 03:24:04,VALID,913.964,VALID,0,VALID,97.6483,VALID,0,VALID,18.299,VALID,118,VALID,0.109766,
2011-01-02, 03:25:04,VALID,913.933,VALID,0,VALID,97.6331,VALID,0,VALID,18.3589,VALID,133,VALID,0.917188,
2011-01-02, 03:26:04,VALID,913.928,VALID,0,VALID,97.6712,VALID,0,VALID,18.3575,VALID,133,VALID,1.53047,
2011-01-02, 03:27:04,VALID,913.923,VALID,0,VALID,97.656,VALID,0,VALID,18.3575,VALID,133,VALID,1.29102,
2011-01-02, 03:28:04,VALID,913.915,VALID,0,VALID,97.656,VALID,0,VALID,18.3979,VALID,156,VALID,0.414453,
2011-01-02, 03:29:04,VALID,913.974,VALID,0,VALID,97.656,VALID,0,VALID,18.416,VALID,150,VALID,1.18555,
2011-01-02, 03:30:04,VALID,914.007,VALID,0,VALID,97.6636,VALID,0,VALID,18.4564,VALID,163,VALID,1.11602,
2011-01-02, 03:31:04,VALID,914.012,VALID,0,VALID,97.6712,VALID,0,VALID,18.4355,VALID,165,VALID,0.877734,
2011-01-02, 03:32:04,VALID,914.001,VALID,0,VALID,97.656,VALID,0,VALID,18.4355,VALID,132,VALID,0.617188,
2011-01-02, 03:33:04,VALID,914.022,VALID,0,VALID,97.6636,VALID,0,VALID,18.4355,VALID,132,VALID,0.746094,
2011-01-02, 03:34:04,VALID,914.046,VALID,0,VALID,97.6636,VALID,0,VALID,18.416,VALID,132,VALID,0.860547,
2011-01-02, 03:35:04,VALID,914.047,VALID,0,VALID,97.656,VALID,0,VALID,18.416,VALID,136,VALID,0.905078,
2011-01-02, 03:36:04,VALID,914.05,VALID,0,VALID,97.6712,VALID,0,VALID,18.416,VALID,151,VALID,1.09687,
2011-01-02, 03:37:04,VALID,914.058,VALID,0,VALID,97.656,VALID,0,VALID,18.416,VALID,141,VALID,1.05938,
2011-01-02, 03:38:04,VALID,914.076,VALID,0,VALID,97.6483,VALID,0,VALID,18.4355,VALID,141,VALID,0.579687,
2011-01-02, 03:39:04,VALID,914.084,VALID,0,VALID,97.6636,VALID,0,VALID,18.4355,VALID,141,VALID,0.533203,
2011-01-02, 03:40:04,VALID,914.103,VALID,0,VALID,97.6483,VALID,0,VALID,18.4355,VALID,141,VALID,0.973437,
2011-01-02, 03:41:04,VALID,914.097,VALID,0,VALID,97.6712,VALID,0,VALID,18.4355,VALID,155,VALID,1.38984,
2011-01-02, 03:42:04,VALID,914.107,VALID,0,VALID,97.6636,VALID,0,VALID,18.4355,VALID,167,VALID,0.927344,
2011-01-02, 03:43:04,VALID,914.1,VALID,0,VALID,97.6712,VALID,0,VALID,18.416,VALID,149,VALID,1.16094,
2011-01-02, 03:44:04,VALID,914.098,VALID,0,VALID,97.6636,VALID,0,VALID,18.4369,VALID,150,VALID,0.530078,
2011-01-02, 03:45:04,VALID,914.125,VALID,0,VALID,97.6865,VALID,0,VALID,18.4355,VALID,150,VALID,0.696484,
2011-01-02, 03:46:04,VALID,914.096,VALID,0,VALID,97.656,VALID,0,VALID,18.4369,VALID,150,VALID,0.29375,